Regional Weather Roundup
Issued by NWS Upton, NY

Current Version | Previous Version | Graphics & Text | Print | Product List | Glossary On
Versions: 1 2 3 4 5 6 7 8 9 10 11 12 13 14 15 16 17 18 19 20 21 22 23 24 25 26 27 28 29 30 31 32 33 34 35 36 37 38 39 40 41 42 43 44 45 46 47 48 49 50
000
ASUS41 KOKX 020405
RWROKX

REGIONAL WEATHER ROUNDUP
NATIONAL WEATHER SERVICE NEW YORK NY
1100 PM EST SUN MAR 01 2015

NOTE: "FAIR" INDICATES FEW OR NO CLOUDS BELOW 12,000 FEET WITH NO
SIGNIFICANT WEATHER AND/OR OBSTRUCTIONS TO VISIBILITY.

NYZ071-072-176-178-NJZ106-104-020500-
NEW YORK CITY METRO AREA


CITY           SKY/WX    TMP DP  RH WIND       PRES   REMARKS
CENTRAL PARK   CLOUDY    28  22  78 NW3       30.20F
LAGUARDIA APRT FRZ RAIN  28  25  88 CALM      30.18F FOG
KENNEDY INTL   CLOUDY    29  25  85 CALM      30.20F
NEWARK/LIBERTY LGT SNOW  27  25  92 CALM      30.19F FOG
BRNX BOT. GARD   N/A    N/A N/A N/A W5        30.19F
TETERBORO      CLOUDY    26  21  81 CALM      30.18F
$$

NYZ177-179-078>081-020500-
LONG ISLAND NEW YORK

CITY           SKY/WX    TMP DP  RH WIND       PRES   REMARKS
FARMINGDALE    CLOUDY    28  25  88 NW3       30.18F
ISLIP          FRZ RAIN  29  26  89 CALM      30.17F FOG
SHIRLEY        FRZ RAIN  29  27  92 CALM      30.19F
WESTHAMPTON    FRZ RAIN  29  26  89 CALM      30.19F
MONTAUK POINT    N/A     31  28  89 NW3       30.16F
$$

NYZ052-065-067-020500-
HUDSON VALLEY

CITY           SKY/WX    TMP DP  RH WIND       PRES   REMARKS
WHITE PLAINS   CLOUDY    25  21  85 NW5       30.15F FOG     WCI  19
NEWBURGH       LGT SNOW  23  21  93 CALM      30.17F FOG
MONTGOMERY     LGT SNOW  23  21  92 S3        30.15F FOG
POUGHKEEPSIE   LGT SNOW  25  21  85 CALM      30.18F FOG
ALBANY         LGT SNOW  24  19  81 S7        30.16F WCI  16
$$

NJZ001-105-106-008-010-013-015-019>022-104-020500-
NEW JERSEY

CITY           SKY/WX    TMP DP  RH WIND       PRES   REMARKS
NEWARK/LIBERTY LGT SNOW  27  25  92 CALM      30.19F FOG
TETERBORO      CLOUDY    26  21  81 CALM      30.18F
CALDWELL       CLOUDY    24  20  84 CALM      30.19F
MORRISTOWN     CLOUDY    27  23  86 CALM      30.18F
SOMERVILLE     FRZ RAIN  25  22  88 CALM      30.18F FOG
SUSSEX         MIX PCPN  24  20  84 CALM      30.15F
ANDOVER          N/A     22  20  92 CALM      30.15F
TRENTON        CLOUDY    30  27  88 CALM      30.19F FOG
MILLVILLE      CLOUDY    33  31  92 CALM      30.20F
ATLANTIC CITY  CLOUDY    32  31  96 W5        30.20F FOG     WCI  27
WRIGHTSTOWN    CLOUDY    31  31  99 CALM      30.17F
TOMS RIVER     CLOUDY    32  30  93 CALM      30.19R
BELMAR         CLOUDY    32  27  80 CALM      30.18F
$$

PAZ047>061-062-071-020500-
EASTERN PENNSYLVANIA

CITY           SKY/WX    TMP DP  RH WIND       PRES   REMARKS
PHILADELPHIA   CLOUDY    31  29  92 SW6       30.21F FOG     WCI  25
ALLENTOWN      CLOUDY    25  21  85 CALM      30.18F FOG
SCRANTON       LGT SNOW  24  21  88 W3        30.13S
$$

CTZ002-004>006-009-010-012-RIZ004-006-007-MAZ004-011-015-020500-
SOUTHERN NEW ENGLAND
 IN CT

CITY           SKY/WX    TMP DP  RH WIND       PRES   REMARKS
BRADLEY INTL   LGT SNOW  27  23  85 S5        30.14F VSB 1   WCI  22
HARTFORD       LGT SNOW  26  24  92 S3        30.17F VSB 1
DANBURY        LGT SNOW  24  19  81 W3        30.17F
WTRBRY/OXFORD  CLOUDY    25  16  68 W3        30.14F
BRIDGEPORT     LGT SNOW  27  25  92 W5        30.18F FOG     WCI  22
MERIDEN        LGT SNOW  26  23  88 S3        30.18F FOG
NEW HAVEN      LGT SNOW  27  26  96 CALM      30.18F FOG
CHESTER        LGT SNOW  28  27  93 CALM      30.15F
GROTON         LGT SNOW  28  27  96 W3        30.16F FOG
WILLIMANTIC    LGT SNOW  26  24  92 S3        30.16F VSB 1

 IN RI

CITY           SKY/WX    TMP DP  RH WIND       PRES   REMARKS
PROVIDENCE     LGT SNOW  29  28  96 CALM      30.16F FOG
BLOCK ISLAND   CLOUDY    30  28  93 NW3       30.15F
WESTERLY       LGT SNOW  29  28  96 CALM      30.16F FOG

 IN MA

CITY           SKY/WX    TMP DP  RH WIND       PRES   REMARKS
BOSTON         LGT SNOW  28  27  96 SW6       30.15F FOG     WCI  22
WORCESTER      LGT SNOW  24  21  88 W13       30.08F FOG     WCI  12
WESTFIELD      LGT SNOW  25  22  88 S5        30.13F FOG     WCI  19
PROVINCETOWN   CLOUDY    30  28  93 S10       30.15F WCI  21
NANTUCKET      LGT RAIN  35  33  92 SE7       30.16F FOG     WCI  29
$$

ANZ330-335-338-340-345-350-353-355-020500-
COASTAL MARINE OBSERVATIONS


STATION/POSITION TIME  SKY/WX   TEMP    WIND        PRES    VSBY  WAVE
                                AIR SEA DIR/SP/G                  HT/PER
                 (UTC)          (F)     (DEG/KT/KT) (MB)    (MI)  (FT/S)
NY HARB ENTRANCE 0400            30 36  310/  2/  2 1022.3          1/ 8
4S FIRE IS       NOT AVBL
20S FIRE ISLAND  0300               36              1023.9          2/ 8
23SW MTP         0400                                 N/A           2/ 9
HUDSON CANYON    NOT AVBL
EXECUTION ROCKS  NOT AVBL
WESTERN LI SOUND NOT AVBL
CENTRAL LI SOUND NOT AVBL
EASTERN LI SOUND NOT AVBL
ROBBINS REEF     0300            26     330/  5/  5 1021.8
$$


>>>>>>>>>>>>>>>>>>>>>>>>>>>> KEY <<<<<<<<<<<<<<<<<<<<<<<<<<<
>                                                          <
>     SKY/WX - SKY CONDITION/PRESENT WEATHER               <
>     TMP    - TEMPERATURE IN FAHRENHEIT                   <
>     DP     - DEWPOINT IN FAHRENHEIT                      <
>     RH     - RELATIVE HUMIDITY IN PERCENT                <
>     WIND   - DIRECTION AND SPEED IN MPH                  <
>     PRES   - MEAN SEA LEVEL PRESSURE IN INCHES OF HG     <
>     WCI    - WIND CHILL INDEX                            <
>     VSB    - VISIBILITY IN MILES                         <
>     HX     - HEAT INDEX                                  <
>     TC     - TEMPERATURE IN CELSIUS                      <
>     VRB    - VARIABLE WIND DIRECTION                     <
>                                                          <
>>>>>>>>>>>>>>>>>>>>>>>>>>>> KEY <<<<<<<<<<<<<<<<<<<<<<<<<<<




USA.gov is the U.S. government's official web portal to all federal, state and local government web resources and services.